"Pseudo-MPEC" for C12P735

Created 2025 Mar 20 12:31:06 UT using Find_Orb

Click here for an explanation of pseudo-MPECs

 
 Astrometry: 
     C12P735* C2025 03 09.47480715 07 27.167-05 03 31.46   ~39Cl 22.58GVNEOCPV00
     C12P735  C2025 03 09.48043715 07 27.059-05 03 30.56   ~39Cl 22.58GVNEOCPV00
     C12P735  C2025 03 09.48604915 07 26.918-05 03 29.70   ~39Cl 22.45GVNEOCPV00
     C12P735  C2025 03 09.49165415 07 26.807-05 03 29.02   ~39Cl 22.65GVNEOCPV00
     C12P735 KC2025 03 10.34932615 07 08.691-05 01 21.24   ~3A9H 22.5 GWNEOCPH01
     C12P735 KC2025 03 10.35530115 07 08.568-05 01 20.40   ~3A9H 22.8 GWNEOCPH01
     C12P735 KC2025 03 10.36297015 07 08.387-05 01 19.27   ~3A9H 22.3 GWNEOCPH01
     C12P735 KC2025 03 10.36996715 07 08.222-05 01 18.19   ~3A9H 22.7 GWNEOCPH01
     C12P735 KC2025 03 11.46567815 06 42.972-04 58 30.39   ~3BCH 22.6 GWNEOCPH01
     C12P735 KC2025 03 11.47540815 06 42.729-04 58 28.87   ~3BCH 22.6 GWNEOCPH01
     C12P735 KC2025 03 11.48573915 06 42.464-04 58 27.13   ~3BCH 22.7 GWNEOCPH01
     C12P735 KC2025 03 11.49586615 06 42.228-04 58 25.60   ~3BCH 22.6 GWNEOCPH01
     C12P735 KC2025 03 20.41785115 02 06.054-04 32 52.66   ~3KC2 21.87GVNEOCPV06
     C12P735 KC2025 03 20.43773215 02 05.240-04 32 49.80   ~3KC2       VNEOCPV06
     C12P735 KC2025 03 20.45760915 02 04.430-04 32 46.32   ~3KC2 22.82GVNEOCPV06
     C12P735 KC2025 03 20.47749215 02 03.685-04 32 42.04   ~3KC2 22.93GVNEOCPV06

Station data:
(H01) Magdalena Ridge Observatory, Socorro  (N33.984833 W107.189333)  US/New
   Mexico.  Observers W. H. Ryan, E. V. Ryan. Measurer W. H. Ryan. 2.4-m
   f/8.9 reflector + CCD.
(V00) Kitt Peak-Bok  (N31.963125 W111.600190)  US/Arizona.  Observers T. A.
   Pruyne, B. M. Africano, E. J. Christensen, G. A. Farneth, D. C. Fuls, A.
   R. Gibbs, A. D. Grauer, H. Gröller, J. A. Johnson, R. A. Kowalski, S. M.
   Larson, G. J. Leonard, D. Rankin, R. L. Seaman, F. C. Shelly, K. W.
   Wierzchoś. 2.25-m reflector + 4x4K mosaic CCD.
(V06) Catalina Sky Survey-Kuiper  (N32.416871 W110.732550)  US/Arizona.
   Observers T. A. Pruyne, B. M. Africano, E. J. Christensen, G. A. Farneth,
   D. C. Fuls, A. R. Gibbs, A. D. Grauer, H. Gröller, J. A. Johnson, R. A.
   Kowalski, S. M. Larson, G. J. Leonard, D. Rankin, R. L. Seaman, F. C.
   Shelly, K. W. Wierzchoś. 1.55-m reflector + CCD.

Orbital elements:  C12P735
   Perihelion 2024 May 20.68741 +/- 9.74 TT = 16:29:52 (JD 2460451.18741)
Epoch 2025 Mar 20.0 TT = JDT 2460754.5   Earth MOID: 0.0745      AutoNEOCP
M  76.21894962 +/- 6                (J2000 ecliptic)
n   0.25128844 +/- 0.0141           Peri.    8.12365 +/- 2.5
a   2.48706824 +/- 0.0932           Node    62.78537 +/- 0.6
e   0.5744202 +/- 0.00828           Incl.   16.20654 +/- 0.34
P   3.92222                H 17.98  G  0.15   U  9.9
q 1.05844585 +/- 0.0192    Q 3.91569063 +/- 0.167
From 16 observations 2025 Mar. 9-20; mean residual 0".19
Residuals in arcseconds: 
250309 V00  .09-  .01-    250310 H01  .04+  .09-    250320 V06  .39+  .60+    
250309 V00  .14+  .06+    250310 H01  .00   .06-    250320 V06  .06-  .24-    
250309 V00  .12-  .10+    250311 H01  .07-  .03-    250320 V06  .46-  .46-    
250309 V00  .07+  .05-    250311 H01  .04-  .03-    250320 V06  .13+  .11+    
250310 H01  .13-  .02-    250311 H01  .10-  .10+    
250310 H01  .10+  .07-    250311 H01  .19+  .05+    

Ephemerides (geocentric):
Date (UTC) HH   RA             Dec           delta  r     elong  mag " sig PA
---- --------  ------------   ------------  ------ ------ -----  --- --------
2025 03 20 13  15 02 01.288   -04 32 27.74  2.1391 2.9215 134.1 22.8 .032 161
2025 03 20 14  15 01 59.699   -04 32 19.97  2.1389 2.9218 134.2 22.8 .042 157
2025 03 20 15  15 01 58.107   -04 32 12.20  2.1387 2.9220 134.2 22.8 .053 155
2025 03 20 16  15 01 56.513   -04 32 04.42  2.1385 2.9222 134.3 22.8 .064 153
2025 03 20 17  15 01 54.916   -04 31 56.64  2.1382 2.9224 134.3 22.8 .076 152
2025 03 20 18  15 01 53.316   -04 31 48.86  2.1380 2.9226 134.4 22.8 .087 151
2025 03 20 19  15 01 51.713   -04 31 41.07  2.1378 2.9228 134.4 22.8 .099 150
2025 03 20 20  15 01 50.108   -04 31 33.27  2.1376 2.9230 134.5 22.8 .110 149
2025 03 20 21  15 01 48.501   -04 31 25.47  2.1373 2.9232 134.5 22.8 .122 148
2025 03 20 22  15 01 46.890   -04 31 17.67  2.1371 2.9234 134.6 22.8 .134 148
2025 03 20 23  15 01 45.277   -04 31 09.86  2.1369 2.9237 134.6 22.8 .146 148
2025 03 21 00  15 01 43.662   -04 31 02.05  2.1366 2.9239 134.7 22.8 .159 147
2025 03 21 01  15 01 42.044   -04 30 54.23  2.1364 2.9241 134.7 22.8 .171 147
2025 03 21 02  15 01 40.423   -04 30 46.41  2.1362 2.9243 134.7 22.8 .184 146
2025 03 21 03  15 01 38.800   -04 30 38.58  2.1360 2.9245 134.8 22.8 .197 146
2025 03 21 04  15 01 37.174   -04 30 30.75  2.1358 2.9247 134.8 22.8 .210 146
2025 03 21 05  15 01 35.545   -04 30 22.91  2.1355 2.9249 134.9 22.8 .223 146
2025 03 21 06  15 01 33.914   -04 30 15.07  2.1353 2.9251 134.9 22.8 .236 145
2025 03 21 07  15 01 32.280   -04 30 07.23  2.1351 2.9253 135.0 22.8 .250 145
2025 03 21 08  15 01 30.644   -04 29 59.38  2.1349 2.9256 135.0 22.8 .263 145
2025 03 21 09  15 01 29.005   -04 29 51.52  2.1346 2.9258 135.1 22.8 .277 145
2025 03 21 10  15 01 27.363   -04 29 43.67  2.1344 2.9260 135.1 22.8 .291 144
2025 03 21 11  15 01 25.719   -04 29 35.80  2.1342 2.9262 135.2 22.8 .305 144
2025 03 21 12  15 01 24.072   -04 29 27.94  2.1340 2.9264 135.2 22.8 .319 144
2025 03 21 13  15 01 22.423   -04 29 20.07  2.1338 2.9266 135.3 22.8 .334 144
2025 03 21 14  15 01 20.771   -04 29 12.19  2.1335 2.9268 135.3 22.8 .348 144
2025 03 21 15  15 01 19.116   -04 29 04.31  2.1333 2.9270 135.4 22.8 .363 143
2025 03 21 16  15 01 17.459   -04 28 56.43  2.1331 2.9272 135.4 22.8 .378 143
2025 03 21 17  15 01 15.799   -04 28 48.54  2.1329 2.9275 135.4 22.7 .393 143
2025 03 21 18  15 01 14.137   -04 28 40.64  2.1327 2.9277 135.5 22.7 .408 143
2025 03 21 19  15 01 12.472   -04 28 32.75  2.1324 2.9279 135.5 22.7 .423 143
2025 03 21 20  15 01 10.804   -04 28 24.85  2.1322 2.9281 135.6 22.7 .439 143
2025 03 21 21  15 01 09.134   -04 28 16.94  2.1320 2.9283 135.6 22.7 .455 142
2025 03 21 22  15 01 07.462   -04 28 09.03  2.1318 2.9285 135.7 22.7 .471 142
2025 03 21 23  15 01 05.786   -04 28 01.11  2.1316 2.9287 135.7 22.7 .487 142
2025 03 22 00  15 01 04.108   -04 27 53.20  2.1314 2.9289 135.8 22.7 .503 142
2025 03 22 01  15 01 02.428   -04 27 45.27  2.1311 2.9291 135.8 22.7 .519 142
2025 03 22 02  15 01 00.745   -04 27 37.35  2.1309 2.9294 135.9 22.7 .536 142
2025 03 22 03  15 00 59.059   -04 27 29.41  2.1307 2.9296 135.9 22.7 .553 141
2025 03 22 04  15 00 57.371   -04 27 21.48  2.1305 2.9298 136.0 22.7 .570 141
2025 03 22 05  15 00 55.680   -04 27 13.54  2.1303 2.9300 136.0 22.7 .587 141
2025 03 22 06  15 00 53.987   -04 27 05.60  2.1301 2.9302 136.0 22.7 .604 141
2025 03 22 07  15 00 52.291   -04 26 57.65  2.1298 2.9304 136.1 22.7 .622 141
2025 03 22 08  15 00 50.593   -04 26 49.70  2.1296 2.9306 136.1 22.7 .639 141
2025 03 22 09  15 00 48.892   -04 26 41.74  2.1294 2.9308 136.2 22.7 .657 141
2025 03 22 10  15 00 47.188   -04 26 33.78  2.1292 2.9310 136.2 22.7 .675 140
2025 03 22 11  15 00 45.482   -04 26 25.81  2.1290 2.9313 136.3 22.7 .693 140
2025 03 22 12  15 00 43.773   -04 26 17.85  2.1288 2.9315 136.3 22.7 .712 140